User: anonymous   Login
Location: San Francisco
(37.7750°N, 122.4180°W)
Time: 21:08:04
(UTC-08:00)
Language:

GP-B - Orbit

View from above orbital plane
View from above orbital plane
View from above satellite
View from above satellite

Ground track
Ground track

The orbit data is extracted from the following two-line orbital elements,

1 28230U 04014A   17053.84947118  .00000171  00000-0  21253-4 0  9998
2 28230  89.8522 124.2126 0002298 106.8062 253.3413 14.78512662692205
Epoch (UTC): 22 February 2017 20:23:14
Eccentricity: 0.0002298
inclination: 89.8522°
perigee height: 632 km
apogee height: 635 km
right ascension of ascending node: 124.2126°
argument of perigee: 106.8062°
revolutions per day: 14.78512662
mean anomaly at epoch: 253.3413°
orbit number at epoch: 69220

The dashed part of the orbit path shows where the satellite is in the earth's shadow,  

DLR